When you browse on this site, cookies collect data to enhance your experience and personalize the content and advertising you see.
Visit our Privacy Policy to learn more. By continuing to use the site, you agree to this use of cookies and data.
  • In Spain
  • List of Countries
  • For 7 days
  • Water Temperature
  • Satellite Maps
  • Weather Map
  • Weather Widgets
  • user-avatar
    Login

    Hourly Weather Gevino

    Today, 15 July, Monday

    Time Temperature Precipitation Wind Pressure Humidity
    00:00 +13°C° 0.1 mm 2 mps 740 mmHg 90%
    01:00 +13°C° 0.1 mm 1 mps 740 mmHg 89%
    02:00 +12°C° 0 mm 1 mps 740 mmHg 88%
    03:00 +13°C° 0 mm 1 mps 740 mmHg 89%
    04:00 +13°C° 0 mm 1 mps 740 mmHg 89%
    05:00 +12°C° 0 mm 0 mps 740 mmHg 89%
    06:00 +14°C° 0 mm 1 mps 740 mmHg 86%
    07:00 +15°C° 0 mm 1 mps 740 mmHg 84%
    08:00 +16°C° 0 mm 1 mps 740 mmHg 82%
    09:00 +16°C° 0.2 mm 1 mps 740 mmHg 80%
    10:00 +17°C° 0.2 mm 2 mps 740 mmHg 78%
    11:00 +17°C° 0.2 mm 2 mps 739 mmHg 77%
    12:00 +18°C° 0.2 mm 2 mps 739 mmHg 74%
    13:00 +19°C° 0.2 mm 2 mps 739 mmHg 72%
    14:00 +20°C° 0 mm 2 mps 740 mmHg 66%
    15:00 +20°C° 0.1 mm 2 mps 740 mmHg 67%
    16:00 +20°C° 0.1 mm 2 mps 740 mmHg 68%
    17:00 +21°C° 0.1 mm 1 mps 740 mmHg 68%
    18:00 +18°C° 0 mm 2 mps 739 mmHg 75%
    19:00 +17°C° 0 mm 2 mps 739 mmHg 81%
    20:00 +15°C° 0 mm 2 mps 739 mmHg 88%
    21:00 +14°C° 0 mm 2 mps 739 mmHg 89%
    22:00 +14°C° 0 mm 2 mps 739 mmHg 91%
    23:00 +13°C° 0 mm 2 mps 739 mmHg 93%

    Tomorrow, 16 July, Tuesday

    Time Temperature Precipitation Wind Pressure Humidity
    00:00 +12°C° 0 mm 2 mps 739 mmHg 94%
    01:00 +12°C° 0 mm 2 mps 739 mmHg 94%
    02:00 +12°C° 0 mm 2 mps 739 mmHg 95%
    03:00 +12°C° 0 mm 2 mps 739 mmHg 96%
    04:00 +12°C° 0 mm 2 mps 739 mmHg 96%
    05:00 +12°C° 0 mm 2 mps 739 mmHg 97%
    06:00 +13°C° 0 mm 2 mps 739 mmHg 94%
    07:00 +15°C° 0 mm 2 mps 739 mmHg 91%
    08:00 +16°C° 0 mm 2 mps 739 mmHg 88%
    09:00 +18°C° 0.2 mm 1 mps 739 mmHg 85%
    10:00 +19°C° 0.2 mm 1 mps 739 mmHg 83%
    11:00 +20°C° 0.2 mm 1 mps 738 mmHg 80%
    12:00 +20°C° 0.5 mm 1 mps 738 mmHg 78%
    13:00 +21°C° 0.5 mm 1 mps 738 mmHg 76%
    14:00 +22°C° 0.5 mm 1 mps 738 mmHg 73%
    15:00 +21°C° 0.5 mm 1 mps 737 mmHg 74%
    16:00 +21°C° 0.5 mm 1 mps 737 mmHg 74%
    17:00 +21°C° 0.5 mm 1 mps 737 mmHg 74%
    18:00 +20°C° 0.3 mm 1 mps 737 mmHg 80%
    19:00 +18°C° 0.3 mm 1 mps 737 mmHg 85%
    20:00 +16°C° 0.3 mm 2 mps 737 mmHg 90%
    21:00 +15°C° 0 mm 2 mps 736 mmHg 91%
    22:00 +15°C° 0 mm 2 mps 736 mmHg 92%
    23:00 +14°C° 0 mm 2 mps 736 mmHg 92%

    Day after tomorrow, 17 July, Wednesday

    Time Temperature Precipitation Wind Pressure Humidity
    00:00 +14°C° 0.1 mm 1 mps 736 mmHg 92%
    01:00 +14°C° 0.1 mm 1 mps 736 mmHg 93%
    02:00 +13°C° 0.1 mm 1 mps 736 mmHg 93%
    03:00 +14°C° 0.5 mm 1 mps 736 mmHg 94%
    04:00 +14°C° 0.5 mm 1 mps 735 mmHg 94%
    05:00 +14°C° 0.5 mm 1 mps 735 mmHg 95%
    06:00 +14°C° 0.4 mm 1 mps 735 mmHg 94%
    07:00 +15°C° 0.4 mm 1 mps 735 mmHg 94%
    08:00 +15°C° 0.4 mm 1 mps 735 mmHg 93%
    09:00 +16°C° 0.4 mm 1 mps 735 mmHg 90%
    10:00 +18°C° 0.4 mm 1 mps 735 mmHg 87%
    11:00 +17°C° 0.4 mm 2 mps 735 mmHg 84%
    12:00 +18°C° 0.5 mm 2 mps 735 mmHg 82%
    13:00 +18°C° 0.5 mm 2 mps 734 mmHg 81%
    14:00 +18°C° 0.5 mm 2 mps 734 mmHg 79%
    15:00 +19°C° 0.6 mm 2 mps 734 mmHg 79%
    16:00 +20°C° 0.6 mm 1 mps 734 mmHg 79%
    17:00 +20°C° 0.6 mm 1 mps 734 mmHg 78%
    18:00 +18°C° 0.3 mm 1 mps 734 mmHg 85%
    19:00 +16°C° 0.3 mm 1 mps 734 mmHg 88%
    20:00 +15°C° 0.3 mm 1 mps 734 mmHg 91%
    21:00 +14°C° 0 mm 1 mps 733 mmHg 91%
    22:00 +13°C° 0 mm 1 mps 733 mmHg 92%
    23:00 +13°C° 0 mm 1 mps 733 mmHg 93%

    18 July, Thursday

    Time Temperature Precipitation Wind Pressure Humidity
    00:00 +13°C° 0 mm 2 mps 733 mmHg 94%
    01:00 +12°C° 0 mm 2 mps 733 mmHg 94%
    02:00 +12°C° 0 mm 2 mps 733 mmHg 95%
    03:00 +12°C° 0 mm 2 mps 733 mmHg 95%
    04:00 +12°C° 0 mm 2 mps 733 mmHg 96%
    05:00 +12°C° 0 mm 2 mps 733 mmHg 97%
    06:00 +13°C° 0 mm 2 mps 733 mmHg 94%
    07:00 +13°C° 0 mm 3 mps 733 mmHg 92%
    08:00 +16°C° 0 mm 3 mps 733 mmHg 89%
    09:00 +17°C° 0.3 mm 3 mps 733 mmHg 86%
    10:00 +18°C° 0.3 mm 3 mps 733 mmHg 84%
    11:00 +18°C° 0.3 mm 4 mps 733 mmHg 81%
    12:00 +18°C° 1.1 mm 4 mps 733 mmHg 82%
    13:00 +18°C° 1.1 mm 4 mps 733 mmHg 83%
    14:00 +17°C° 1.1 mm 5 mps 733 mmHg 84%
    15:00 +18°C° 0.5 mm 4 mps 733 mmHg 85%
    16:00 +17°C° 0.5 mm 4 mps 733 mmHg 87%
    17:00 +15°C° 0.5 mm 4 mps 733 mmHg 89%
    18:00 +14°C° 0.2 mm 3 mps 733 mmHg 91%
    19:00 +15°C° 0.2 mm 2 mps 734 mmHg 94%
    20:00 +14°C° 0.2 mm 2 mps 734 mmHg 97%
    21:00 +14°C° 0.1 mm 2 mps 734 mmHg 97%
    22:00 +13°C° 0.1 mm 1 mps 734 mmHg 97%
    23:00 +13°C° 0.1 mm 1 mps 734 mmHg 98%

    19 July, Friday

    Time Temperature Precipitation Wind Pressure Humidity
    00:00 +13°C° 0 mm 1 mps 734 mmHg 98%
    01:00 +13°C° 0 mm 1 mps 734 mmHg 98%
    02:00 +13°C° 0 mm 1 mps 734 mmHg 98%
    03:00 +13°C° 0 mm 1 mps 734 mmHg 98%
    04:00 +13°C° 0 mm 2 mps 735 mmHg 97%
    05:00 +13°C° 0 mm 2 mps 735 mmHg 97%
    06:00 +14°C° 0.1 mm 2 mps 735 mmHg 95%
    07:00 +15°C° 0.1 mm 2 mps 735 mmHg 94%
    08:00 +16°C° 0.1 mm 3 mps 736 mmHg 92%
    09:00 +17°C° 1.1 mm 3 mps 736 mmHg 91%
    10:00 +17°C° 1.1 mm 4 mps 736 mmHg 90%
    11:00 +17°C° 1.1 mm 5 mps 736 mmHg 88%
    12:00 +16°C° 0.7 mm 5 mps 737 mmHg 91%
    13:00 +15°C° 0.7 mm 5 mps 737 mmHg 93%
    14:00 +13°C° 0.7 mm 5 mps 737 mmHg 95%
    15:00 +13°C° 0.1 mm 5 mps 737 mmHg 95%
    16:00 +13°C° 0.1 mm 5 mps 738 mmHg 96%
    17:00 +13°C° 0.1 mm 5 mps 738 mmHg 96%
    18:00 +13°C° 0 mm 5 mps 738 mmHg 96%
    19:00 +14°C° 0 mm 5 mps 738 mmHg 96%
    20:00 +14°C° 0 mm 4 mps 739 mmHg 96%
    21:00 +14°C° 0 mm 4 mps 739 mmHg 96%
    22:00 +14°C° 0 mm 4 mps 739 mmHg 96%
    23:00 +14°C° 0 mm 4 mps 740 mmHg 96%

    20 July, Saturday

    Time Temperature Precipitation Wind Pressure Humidity
    00:00 +14°C° 0 mm 4 mps 740 mmHg 96%
    01:00 +14°C° 0 mm 4 mps 740 mmHg 96%
    02:00 +14°C° 0 mm 4 mps 741 mmHg 97%
    03:00 +14°C° 0 mm 4 mps 741 mmHg 97%
    04:00 +14°C° 0 mm 4 mps 741 mmHg 97%
    05:00 +14°C° 0 mm 3 mps 742 mmHg 97%
    06:00 +14°C° 0 mm 3 mps 742 mmHg 95%
    07:00 +16°C° 0 mm 3 mps 742 mmHg 93%
    08:00 +15°C° 0 mm 4 mps 743 mmHg 91%
    09:00 +17°C° 0.1 mm 4 mps 743 mmHg 88%
    10:00 +18°C° 0.1 mm 4 mps 743 mmHg 85%
    11:00 +19°C° 0.1 mm 4 mps 744 mmHg 82%
    12:00 +20°C° 0.6 mm 4 mps 744 mmHg 81%
    13:00 +20°C° 0.6 mm 4 mps 744 mmHg 81%
    14:00 +21°C° 0.6 mm 4 mps 744 mmHg 80%
    15:00 +21°C° 0.7 mm 4 mps 744 mmHg 81%
    16:00 +21°C° 0.7 mm 4 mps 744 mmHg 83%
    17:00 +21°C° 0.7 mm 4 mps 744 mmHg 84%
    18:00 +20°C° 0.2 mm 4 mps 744 mmHg 87%
    19:00 +18°C° 0.2 mm 3 mps 744 mmHg 89%
    20:00 +17°C° 0.2 mm 3 mps 745 mmHg 92%
    21:00 +16°C° 0 mm 3 mps 745 mmHg 93%
    22:00 +16°C° 0 mm 3 mps 745 mmHg 93%
    23:00 +14°C° 0 mm 3 mps 745 mmHg 94%
    Show more